Home > Weather > Lewiston > Past weeks

Flag for USA Past Weather in Lewiston, Idaho, USA — Yesterday and Last 2 Weeks

Now
52 °F

Light rain. Overcast.


Feels Like: 52 °F
Forecast: 50 / 69 °F
Wind: No wind

Location: Lewiston-Nez Perce County Airport

Current Time: May 24, 2016 at 8:58:42 AM

Latest Report: May 24, 2016 at 7:56 AM


Visibility: 10 mi

Pressure: 29.91 "Hg

Humidity: 86%

Dew Point: 48 °F

Location of LewistonLocation

Past Weather in Lewiston — Graph

°F

Lewiston Temperature Yesterday

Maximum temperature yesterday: 62 °F (at 11:56 AM)
Minimum temperature yesterday: 52 °F (at 1:56 AM)
Average temperature yesterday: 57 °F

High & Low Weather Summary for the Past Weeks

 TemperatureHumidityPressure
High86 °F (May 13, 3:56 PM)93% (May 14, 11:56 PM)30.25 "Hg (May 14, 11:56 PM)
Low42 °F (May 10, 5:56 AM)14% (May 13, 4:56 PM)29.59 "Hg (May 20, 4:56 PM)
Average60 °F59%29.92 "Hg
* Reported May 9 6:56 AM — May 24 6:56 AM, Lewiston, Weather by CustomWeather, © 2016

Note: Actual official high and low records may vary slightly from our data, if they occured in-between our weather recording intervals... More about our weather records

Advertising

Lewiston Weather History for the Previous 24 Hours

Scroll right to see more
 ConditionsComfort  
Time TempWeatherWind HumidityBarometerVisibility
6:56 AM
Tue, May 24
51 °FLight rain. Overcast.5 mph86%29.90 "Hg10 mi
5:56 AM52 °FOvercast.No wind80%29.89 "Hg10 mi
4:56 AM52 °FOvercast.6 mph77%29.88 "Hg10 mi
3:56 AM53 °FOvercast.7 mph72%29.87 "Hg10 mi
2:56 AM53 °FOvercast.7 mph72%29.86 "Hg10 mi
1:56 AM53 °FOvercast.5 mph74%29.85 "Hg10 mi
12:56 AM52 °FOvercast.5 mph77%29.86 "Hg10 mi
11:56 PM
Mon, May 23
53 °FOvercast.3 mph74%29.86 "Hg10 mi
10:56 PM53 °FOvercast.8 mph72%29.86 "Hg10 mi
9:56 PM55 °FClear.9 mph67%29.86 "Hg10 mi
8:56 PM56 °FSunny.10 mph62%29.85 "Hg10 mi
7:56 PM59 °FSunny.8 mph58%29.84 "Hg10 mi
6:56 PM61 °FSunny.6 mph50%29.83 "Hg10 mi
5:56 PM61 °FSunny.10 mph50%29.83 "Hg10 mi
4:56 PM61 °FPassing clouds.13 mph52%29.83 "Hg10 mi
3:56 PM62 °FPartly sunny.8 mph48%29.84 "Hg10 mi
2:56 PM62 °FPassing clouds.6 mph46%29.84 "Hg10 mi
1:56 PM62 °FBroken clouds.7 mph44%29.84 "Hg10 mi
12:56 PM62 °FPartly sunny.9 mph43%29.84 "Hg10 mi
11:56 AM62 °FScattered clouds.8 mph43%29.84 "Hg10 mi
10:56 AM61 °FPartly sunny.13 mph42%29.84 "Hg10 mi
9:56 AM60 °FMostly cloudy.No wind46%29.85 "Hg10 mi
8:56 AM58 °FScattered clouds.3 mph54%29.86 "Hg10 mi
Weather by CustomWeather, © 2016

See weather overviewHow to use our weather pages